TimeMST,TemperatureF,Dew PointF,Humidity,Sea Level PressureIn,VisibilityMPH,Wind Direction,Wind SpeedMPH,Gust SpeedMPH,PrecipitationIn,Events,Conditions,WindDirDegrees,DateUTC
12:48 AM,12.0,8.1,84,30.06,-9999.0,West,8.1,-,N/A,,Unknown,270,2012-12-30 07:48:00
1:48 AM,10.9,7.0,84,30.07,-9999.0,West,6.9,-,N/A,,Unknown,280,2012-12-30 08:48:00
2:48 AM,16.0,12.0,84,30.07,-9999.0,West,5.8,-,N/A,,Unknown,270,2012-12-30 09:48:00
3:48 AM,19.0,15.1,85,30.09,-9999.0,NW,5.8,-,N/A,,Unknown,320,2012-12-30 10:48:00
4:48 AM,18.0,15.1,88,30.10,-9999.0,West,5.8,-,N/A,,Unknown,260,2012-12-30 11:48:00
5:48 AM,23.0,19.0,85,30.11,-9999.0,WNW,6.9,-,N/A,,Unknown,300,2012-12-30 12:48:00
6:48 AM,21.9,18.0,85,30.13,-9999.0,WNW,9.2,-,N/A,,Unknown,290,2012-12-30 13:48:00
7:48 AM,21.9,18.0,85,30.14,-9999.0,West,6.9,-,N/A,,Unknown,280,2012-12-30 14:48:00
8:48 AM,19.9,17.1,89,30.16,-9999.0,West,6.9,-,N/A,,Unknown,280,2012-12-30 15:48:00
9:48 AM,19.9,16.0,85,30.18,-9999.0,West,9.2,-,N/A,,Unknown,280,2012-12-30 16:48:00
10:48 AM,21.9,17.1,82,30.18,-9999.0,WNW,9.2,-,N/A,,Unknown,290,2012-12-30 17:48:00
11:48 AM,26.1,19.9,78,30.15,-9999.0,West,10.4,-,N/A,,Unknown,270,2012-12-30 18:48:00
12:48 PM,28.0,21.0,75,30.14,-9999.0,West,8.1,-,N/A,,Unknown,270,2012-12-30 19:48:00
1:48 PM,28.0,21.0,75,30.14,-9999.0,WNW,9.2,-,N/A,,Unknown,290,2012-12-30 20:48:00
2:48 PM,28.0,21.0,75,30.14,-9999.0,WNW,3.5,-,N/A,,Unknown,290,2012-12-30 21:48:00
3:48 PM,26.1,21.0,81,30.14,-9999.0,Calm,Calm,-,N/A,,Unknown,0,2012-12-30 22:48:00
4:48 PM,23.0,18.0,81,30.16,-9999.0,Calm,Calm,-,N/A,,Unknown,0,2012-12-30 23:48:00
5:48 PM,21.0,18.0,88,30.16,-9999.0,Calm,Calm,-,N/A,,Unknown,0,2012-12-31 00:48:00
6:48 PM,21.0,17.1,85,30.16,-9999.0,Calm,Calm,-,N/A,,Unknown,0,2012-12-31 01:48:00
7:48 PM,21.9,18.0,85,30.16,-9999.0,Calm,Calm,-,N/A,,Unknown,0,2012-12-31 02:48:00
8:48 PM,21.9,19.0,89,30.15,-9999.0,Calm,Calm,-,N/A,,Unknown,0,2012-12-31 03:48:00
9:48 PM,23.0,19.9,88,30.16,-9999.0,Calm,Calm,-,N/A,,Unknown,0,2012-12-31 04:48:00
10:48 PM,23.0,19.9,88,30.15,-9999.0,Calm,Calm,-,N/A,,Unknown,0,2012-12-31 05:48:00
11:48 PM,24.1,19.9,84,30.14,-9999.0,Calm,Calm,-,N/A,,Unknown,0,2012-12-31 06:48:00